Time,TemperatureF,DewpointF,PressureIn,WindDirection,WindDirectionDegrees,WindSpeedMPH,WindSpeedGustMPH,Humidity,HourlyPrecipIn,Conditions,Clouds,dailyrainin,SoftwareType,DateUTC
2013-05-22 00:02:00,72.1,69.3,29.94,WSW,246,1.0,2.0,91,0.00,NA,NA,0.00,WeatherLink_script,2013-05-22 04:02:00,
2013-05-22 00:03:00,72.1,69.3,29.94,WSW,246,2.4,3.0,91,0.00,NA,NA,0.00,WeatherLink_script,2013-05-22 04:03:00,
2013-05-22 00:04:00,72.0,69.2,29.94,WSW,246,0.8,3.0,91,0.00,NA,NA,0.00,WeatherLink_script,2013-05-22 04:04:00,
2013-05-22 00:07:00,72.1,69.3,29.94,WSW,246,1.2,2.0,91,0.00,NA,NA,0.00,WeatherLink_script,2013-05-22 04:07:00,
2013-05-22 00:10:00,71.9,69.1,29.94,WSW,246,0.5,1.0,91,0.00,NA,NA,0.00,WeatherLink_script,2013-05-22 04:10:00,
2013-05-22 00:15:00,71.9,69.1,29.93,WSW,246,0.0,0.0,91,0.00,NA,NA,0.00,WeatherLink_script,2013-05-22 04:15:00,
2013-05-22 00:21:00,71.7,69.2,29.94,WSW,246,1.4,2.0,92,0.00,NA,NA,0.00,WeatherLink_script,2013-05-22 04:21:00,
2013-05-22 00:26:00,71.5,69.0,29.94,WSW,246,0.6,2.0,92,0.00,NA,NA,0.00,WeatherLink_script,2013-05-22 04:26:00,
2013-05-22 00:31:00,71.6,69.1,29.94,WSW,246,0.4,2.0,92,0.00,NA,NA,0.00,WeatherLink_script,2013-05-22 04:31:00,
2013-05-22 00:36:00,71.4,69.0,29.93,WSW,246,0.3,2.0,92,0.00,NA,NA,0.00,WeatherLink_script,2013-05-22 04:36:00,
2013-05-22 00:41:00,71.3,68.8,29.93,WSW,243,1.3,3.0,92,0.00,NA,NA,0.00,WeatherLink_script,2013-05-22 04:41:00,
2013-05-22 00:46:00,71.2,69.1,29.93,WSW,243,2.0,3.0,93,0.00,NA,NA,0.00,WeatherLink_script,2013-05-22 04:46:00,
2013-05-22 00:51:00,71.1,68.9,29.93,WSW,243,0.9,2.0,93,0.00,NA,NA,0.00,WeatherLink_script,2013-05-22 04:51:00,
2013-05-22 00:56:00,71.0,68.9,29.93,WSW,243,1.1,2.0,93,0.00,NA,NA,0.00,WeatherLink_script,2013-05-22 04:56:00,
2013-05-22 01:01:00,71.0,68.9,29.93,WSW,243,1.9,3.0,93,0.00,NA,NA,0.00,WeatherLink_script,2013-05-22 05:01:00,
2013-05-22 01:06:00,70.8,68.7,29.93,WSW,243,1.2,2.0,93,0.00,NA,NA,0.00,WeatherLink_script,2013-05-22 05:06:00,
2013-05-22 01:11:00,70.9,68.7,29.92,WSW,243,1.1,2.0,93,0.00,NA,NA,0.00,WeatherLink_script,2013-05-22 05:11:00,
2013-05-22 01:16:00,70.7,68.6,29.92,WSW,243,1.5,3.0,93,0.00,NA,NA,0.00,WeatherLink_script,2013-05-22 05:16:00,
2013-05-22 01:21:00,70.7,68.6,29.92,WSW,243,1.2,2.0,93,0.00,NA,NA,0.00,WeatherLink_script,2013-05-22 05:21:00,
2013-05-22 01:26:00,70.5,68.4,29.92,WSW,243,0.8,2.0,93,0.00,NA,NA,0.00,WeatherLink_script,2013-05-22 05:26:00,
2013-05-22 01:31:00,70.3,68.5,29.92,WSW,243,0.6,2.0,94,0.00,NA,NA,0.00,WeatherLink_script,2013-05-22 05:31:00,
2013-05-22 01:36:00,70.2,68.1,29.92,WSW,243,0.8,2.0,93,0.00,NA,NA,0.00,WeatherLink_script,2013-05-22 05:36:00,
2013-05-22 01:41:00,70.2,68.4,29.91,SSE,159,0.8,2.0,94,0.00,NA,NA,0.00,WeatherLink_script,2013-05-22 05:41:00,
2013-05-22 01:46:00,70.0,68.2,29.92,South,175,1.6,2.0,94,0.00,NA,NA,0.00,WeatherLink_script,2013-05-22 05:46:00,
2013-05-22 01:51:00,69.8,68.0,29.92,South,174,1.3,2.0,94,0.00,NA,NA,0.00,WeatherLink_script,2013-05-22 05:51:00,
2013-05-22 01:56:00,69.8,68.0,29.92,SSW,211,2.1,3.0,94,0.00,NA,NA,0.00,WeatherLink_script,2013-05-22 05:56:00,
2013-05-22 02:01:00,69.7,67.9,29.92,SW,228,1.6,3.0,94,0.00,NA,NA,0.00,WeatherLink_script,2013-05-22 06:01:00,
2013-05-22 02:06:00,69.7,67.9,29.92,SW,228,2.3,3.0,94,0.00,NA,NA,0.00,WeatherLink_script,2013-05-22 06:06:00,
2013-05-22 02:11:00,69.5,68.0,29.91,SW,228,1.7,3.0,95,0.00,NA,NA,0.00,WeatherLink_script,2013-05-22 06:11:00,
2013-05-22 02:16:00,69.5,68.0,29.91,SW,228,1.7,3.0,95,0.00,NA,NA,0.00,WeatherLink_script,2013-05-22 06:16:00,
2013-05-22 02:21:00,69.4,67.9,29.91,SW,225,2.8,5.0,95,0.00,NA,NA,0.00,WeatherLink_script,2013-05-22 06:21:00,
2013-05-22 02:26:00,69.3,67.8,29.91,SW,220,3.0,4.0,95,0.00,NA,NA,0.00,WeatherLink_script,2013-05-22 06:26:00,
2013-05-22 02:31:00,69.3,67.8,29.91,SW,220,2.0,4.0,95,0.00,NA,NA,0.00,WeatherLink_script,2013-05-22 06:31:00,
2013-05-22 02:36:00,69.3,67.8,29.90,SW,220,2.4,4.0,95,0.00,NA,NA,0.00,WeatherLink_script,2013-05-22 06:36:00,
2013-05-22 02:41:00,69.2,67.7,29.90,SW,218,2.4,4.0,95,0.00,NA,NA,0.00,WeatherLink_script,2013-05-22 06:41:00,
2013-05-22 02:46:00,69.2,67.7,29.91,SW,218,3.1,5.0,95,0.00,NA,NA,0.00,WeatherLink_script,2013-05-22 06:46:00,
2013-05-22 02:51:00,69.2,67.7,29.91,SW,214,1.9,3.0,95,0.00,NA,NA,0.00,WeatherLink_script,2013-05-22 06:51:00,
2013-05-22 02:56:00,69.0,67.5,29.90,SW,214,1.9,3.0,95,0.00,NA,NA,0.00,WeatherLink_script,2013-05-22 06:56:00,
2013-05-22 03:01:00,69.0,67.5,29.90,SW,214,2.4,3.0,95,0.00,NA,NA,0.00,WeatherLink_script,2013-05-22 07:01:00,
2013-05-22 03:06:00,69.0,67.5,29.90,SW,214,2.5,4.0,95,0.00,NA,NA,0.00,WeatherLink_script,2013-05-22 07:06:00,
2013-05-22 03:11:00,69.0,67.5,29.90,SW,214,2.9,5.0,95,0.00,NA,NA,0.00,WeatherLink_script,2013-05-22 07:11:00,
2013-05-22 03:16:00,68.8,67.3,29.90,SSW,211,2.0,4.0,95,0.00,NA,NA,0.00,WeatherLink_script,2013-05-22 07:16:00,
2013-05-22 03:21:00,68.8,67.3,29.90,SSW,211,2.8,4.0,95,0.00,NA,NA,0.00,WeatherLink_script,2013-05-22 07:21:00,
2013-05-22 03:26:00,68.7,67.5,29.90,SSW,201,3.0,5.0,96,0.00,NA,NA,0.00,WeatherLink_script,2013-05-22 07:26:00,
2013-05-22 03:31:00,68.7,67.5,29.89,SSW,201,3.5,4.0,96,0.00,NA,NA,0.00,WeatherLink_script,2013-05-22 07:31:00,
2013-05-22 03:36:00,68.7,67.5,29.89,SSW,200,2.7,4.0,96,0.00,NA,NA,0.00,WeatherLink_script,2013-05-22 07:36:00,
2013-05-22 03:41:00,68.5,67.3,29.89,SSE,167,2.5,3.0,96,0.00,NA,NA,0.00,WeatherLink_script,2013-05-22 07:41:00,
2013-05-22 03:46:00,68.5,67.3,29.89,South,172,3.1,5.0,96,0.00,NA,NA,0.00,WeatherLink_script,2013-05-22 07:46:00,
2013-05-22 03:51:00,68.4,67.3,29.89,South,172,2.0,3.0,96,0.00,NA,NA,0.00,WeatherLink_script,2013-05-22 07:51:00,
2013-05-22 03:56:00,68.3,67.1,29.89,South,183,2.3,4.0,96,0.00,NA,NA,0.00,WeatherLink_script,2013-05-22 07:56:00,
2013-05-22 04:01:00,68.3,67.1,29.90,South,182,2.5,4.0,96,0.00,NA,NA,0.00,WeatherLink_script,2013-05-22 08:01:00,
2013-05-22 04:06:00,68.2,67.0,29.90,SSW,203,2.5,4.0,96,0.00,NA,NA,0.00,WeatherLink_script,2013-05-22 08:06:00,
2013-05-22 04:12:00,68.2,67.0,29.90,SSW,204,2.3,3.0,96,0.00,NA,NA,0.00,WeatherLink_script,2013-05-22 08:12:00,
2013-05-22 04:17:00,68.2,67.0,29.90,South,183,2.7,4.0,96,0.00,NA,NA,0.00,WeatherLink_script,2013-05-22 08:17:00,
2013-05-22 04:22:00,68.2,67.0,29.90,SSW,192,3.0,4.0,96,0.00,NA,NA,0.00,WeatherLink_script,2013-05-22 08:22:00,
2013-05-22 04:27:00,68.0,66.8,29.90,SSW,196,3.0,5.0,96,0.00,NA,NA,0.00,WeatherLink_script,2013-05-22 08:27:00,
2013-05-22 04:32:00,68.0,66.8,29.90,SW,217,2.2,3.0,96,0.00,NA,NA,0.00,WeatherLink_script,2013-05-22 08:32:00,
2013-05-22 04:37:00,68.0,66.8,29.90,SSW,207,3.1,5.0,96,0.00,NA,NA,0.00,WeatherLink_script,2013-05-22 08:37:00,
2013-05-22 04:42:00,68.0,66.8,29.90,WSW,256,2.8,4.0,96,0.00,NA,NA,0.00,WeatherLink_script,2013-05-22 08:42:00,
2013-05-22 04:47:00,67.9,67.0,29.90,WSW,247,2.3,4.0,97,0.00,NA,NA,0.00,WeatherLink_script,2013-05-22 08:47:00,
2013-05-22 04:52:00,67.9,66.7,29.90,SW,226,3.0,4.0,96,0.00,NA,NA,0.00,WeatherLink_script,2013-05-22 08:52:00,
2013-05-22 04:57:00,67.8,66.6,29.90,SW,215,2.8,5.0,96,0.00,NA,NA,0.00,WeatherLink_script,2013-05-22 08:57:00,
2013-05-22 05:02:00,67.7,66.5,29.90,SW,221,2.9,4.0,96,0.00,NA,NA,0.00,WeatherLink_script,2013-05-22 09:02:00,
2013-05-22 05:07:00,67.7,66.5,29.90,SSW,199,2.6,5.0,96,0.00,NA,NA,0.00,WeatherLink_script,2013-05-22 09:07:00,
2013-05-22 05:12:00,67.7,66.8,29.90,SSW,204,3.1,4.0,97,0.00,NA,NA,0.00,WeatherLink_script,2013-05-22 09:12:00,
2013-05-22 05:17:00,67.7,66.8,29.90,SSW,209,2.9,5.0,97,0.00,NA,NA,0.00,WeatherLink_script,2013-05-22 09:17:00,
2013-05-22 05:22:00,67.5,66.6,29.90,SW,217,2.5,4.0,97,0.00,NA,NA,0.00,WeatherLink_script,2013-05-22 09:22:00,
2013-05-22 05:27:00,67.5,66.6,29.90,SW,215,3.0,4.0,97,0.00,NA,NA,0.00,WeatherLink_script,2013-05-22 09:27:00,
2013-05-22 05:32:00,67.5,66.6,29.91,South,174,3.1,4.0,97,0.00,NA,NA,0.00,WeatherLink_script,2013-05-22 09:32:00,
2013-05-22 05:37:00,67.5,66.6,29.91,SW,224,3.3,4.0,97,0.00,NA,NA,0.00,WeatherLink_script,2013-05-22 09:37:00,
2013-05-22 05:42:00,67.5,66.6,29.91,SSW,204,2.2,4.0,97,0.00,NA,NA,0.00,WeatherLink_script,2013-05-22 09:42:00,
2013-05-22 05:47:00,67.5,66.6,29.91,SSE,162,3.4,6.0,97,0.00,NA,NA,0.00,WeatherLink_script,2013-05-22 09:47:00,
2013-05-22 05:52:00,67.4,66.5,29.91,SSW,212,2.9,4.0,97,0.00,NA,NA,0.00,WeatherLink_script,2013-05-22 09:52:00,
2013-05-22 05:57:00,67.4,66.5,29.91,SSW,203,2.1,4.0,97,0.00,NA,NA,0.00,WeatherLink_script,2013-05-22 09:57:00,
2013-05-22 06:02:00,67.4,66.5,29.92,WSW,248,2.8,4.0,97,0.00,NA,NA,0.00,WeatherLink_script,2013-05-22 10:02:00,
2013-05-22 06:07:00,67.4,66.5,29.92,WSW,245,1.8,3.0,97,0.00,NA,NA,0.00,WeatherLink_script,2013-05-22 10:07:00,
2013-05-22 06:12:00,67.4,66.5,29.92,SW,217,2.2,4.0,97,0.00,NA,NA,0.00,WeatherLink_script,2013-05-22 10:12:00,
2013-05-22 06:17:00,67.4,66.5,29.93,SW,224,2.9,4.0,97,0.00,NA,NA,0.00,WeatherLink_script,2013-05-22 10:17:00,
2013-05-22 06:22:00,67.4,66.5,29.93,SW,235,3.0,4.0,97,0.00,NA,NA,0.00,WeatherLink_script,2013-05-22 10:22:00,
2013-05-22 06:27:00,67.4,66.5,29.93,SW,228,2.0,3.0,97,0.00,NA,NA,0.00,WeatherLink_script,2013-05-22 10:27:00,
2013-05-22 06:32:00,67.4,66.5,29.94,WSW,240,3.4,6.0,97,0.00,NA,NA,0.00,WeatherLink_script,2013-05-22 10:32:00,
2013-05-22 06:37:00,67.4,66.5,29.94,WSW,249,1.7,4.0,97,0.00,NA,NA,0.00,WeatherLink_script,2013-05-22 10:37:00,
2013-05-22 06:42:00,67.4,66.5,29.94,WSW,241,1.3,3.0,97,0.00,NA,NA,0.00,WeatherLink_script,2013-05-22 10:42:00,
2013-05-22 06:47:00,67.4,66.5,29.94,SW,236,1.3,3.0,97,0.00,NA,NA,0.00,WeatherLink_script,2013-05-22 10:47:00,
2013-05-22 06:52:00,67.3,66.4,29.94,WSW,243,1.5,3.0,97,0.00,NA,NA,0.00,WeatherLink_script,2013-05-22 10:52:00,
2013-05-22 06:57:00,67.3,66.4,29.94,WSW,243,0.8,3.0,97,0.00,NA,NA,0.00,WeatherLink_script,2013-05-22 10:57:00,
2013-05-22 07:02:00,67.4,66.5,29.95,WSW,243,1.9,3.0,97,0.00,NA,NA,0.00,WeatherLink_script,2013-05-22 11:02:00,
2013-05-22 07:07:00,67.4,66.5,29.95,WSW,243,2.4,4.0,97,0.00,NA,NA,0.00,WeatherLink_script,2013-05-22 11:07:00,
2013-05-22 07:12:00,67.4,66.5,29.95,WSW,243,1.8,3.0,97,0.00,NA,NA,0.00,WeatherLink_script,2013-05-22 11:12:00,
2013-05-22 07:17:00,67.4,66.5,29.95,SW,231,2.9,5.0,97,0.00,NA,NA,0.00,WeatherLink_script,2013-05-22 11:17:00,
2013-05-22 07:22:00,67.5,66.6,29.95,SW,222,2.3,4.0,97,0.00,NA,NA,0.00,WeatherLink_script,2013-05-22 11:22:00,
2013-05-22 07:27:00,67.5,66.6,29.96,West,266,1.5,3.0,97,0.00,NA,NA,0.00,WeatherLink_script,2013-05-22 11:27:00,
2013-05-22 07:32:00,67.7,66.8,29.96,SW,224,1.9,4.0,97,0.00,NA,NA,0.00,WeatherLink_script,2013-05-22 11:32:00,
2013-05-22 07:37:00,67.7,66.8,29.96,SSE,168,2.1,3.0,97,0.00,NA,NA,0.00,WeatherLink_script,2013-05-22 11:37:00,
2013-05-22 07:42:00,67.8,67.0,29.96,SW,225,1.8,3.0,97,0.00,NA,NA,0.00,WeatherLink_script,2013-05-22 11:42:00,
2013-05-22 07:47:00,67.9,67.0,29.96,SSW,207,1.9,5.0,97,0.00,NA,NA,0.00,WeatherLink_script,2013-05-22 11:47:00,
2013-05-22 07:52:00,68.0,67.1,29.96,SW,222,1.9,3.0,97,0.00,NA,NA,0.00,WeatherLink_script,2013-05-22 11:52:00,
2013-05-22 07:57:00,68.0,67.1,29.96,SW,221,1.1,2.0,97,0.00,NA,NA,0.00,WeatherLink_script,2013-05-22 11:57:00,
2013-05-22 08:02:00,68.2,67.3,29.96,SW,221,0.5,2.0,97,0.00,NA,NA,0.00,WeatherLink_script,2013-05-22 12:02:00,
2013-05-22 08:07:00,68.3,67.4,29.96,SW,221,0.0,0.0,97,0.00,NA,NA,0.00,WeatherLink_script,2013-05-22 12:07:00,
2013-05-22 08:12:00,68.6,67.7,29.96,SW,221,0.6,2.0,97,0.00,NA,NA,0.00,WeatherLink_script,2013-05-22 12:12:00,
2013-05-22 08:17:00,68.8,67.9,29.96,SW,221,1.1,2.0,97,0.00,NA,NA,0.00,WeatherLink_script,2013-05-22 12:17:00,
2013-05-22 08:22:00,69.1,67.9,29.97,SW,221,1.6,3.0,96,0.00,NA,NA,0.00,WeatherLink_script,2013-05-22 12:22:00,
2013-05-22 08:27:00,69.3,68.1,29.97,South,173,2.1,4.0,96,0.00,NA,NA,0.00,WeatherLink_script,2013-05-22 12:27:00,
2013-05-22 08:33:00,69.7,68.2,29.97,South,173,2.2,4.0,95,0.00,NA,NA,0.00,WeatherLink_script,2013-05-22 12:33:00,
2013-05-22 08:38:00,69.8,68.3,29.97,West,277,1.4,4.0,95,0.00,NA,NA,0.00,WeatherLink_script,2013-05-22 12:38:00,
2013-05-22 08:43:00,70.0,68.2,29.97,SW,232,1.1,2.0,94,0.00,NA,NA,0.00,WeatherLink_script,2013-05-22 12:43:00,
2013-05-22 08:48:00,70.3,68.5,29.97,SW,232,1.4,4.0,94,0.00,NA,NA,0.00,WeatherLink_script,2013-05-22 12:48:00,
2013-05-22 08:53:00,70.4,68.3,29.97,SW,224,1.5,3.0,93,0.00,NA,NA,0.00,WeatherLink_script,2013-05-22 12:53:00,
2013-05-22 08:58:00,70.7,68.6,29.97,WSW,239,1.1,2.0,93,0.00,NA,NA,0.00,WeatherLink_script,2013-05-22 12:58:00,
2013-05-22 09:03:00,71.0,68.9,29.97,WSW,239,2.8,4.0,93,0.00,NA,NA,0.00,WeatherLink_script,2013-05-22 13:03:00,
2013-05-22 09:08:00,71.6,69.1,29.97,WSW,247,0.4,2.0,92,0.00,NA,NA,0.00,WeatherLink_script,2013-05-22 13:08:00,
2013-05-22 09:13:00,72.1,69.4,29.97,WSW,246,1.3,2.0,91,0.00,NA,NA,0.00,WeatherLink_script,2013-05-22 13:13:00,
2013-05-22 09:18:00,72.8,69.6,29.97,South,183,1.2,2.0,90,0.00,NA,NA,0.00,WeatherLink_script,2013-05-22 13:18:00,
2013-05-22 09:23:00,73.2,69.4,29.97,ENE,78,1.4,3.0,88,0.00,NA,NA,0.00,WeatherLink_script,2013-05-22 13:23:00,
2013-05-22 09:28:00,73.8,69.7,29.97,SW,226,1.5,2.0,87,0.00,NA,NA,0.00,WeatherLink_script,2013-05-22 13:28:00,
2013-05-22 09:33:00,74.3,70.1,29.97,SW,226,0.8,3.0,87,0.00,NA,NA,0.00,WeatherLink_script,2013-05-22 13:33:00,
2013-05-22 09:38:00,74.8,70.4,29.97,SW,226,0.7,1.0,86,0.00,NA,NA,0.00,WeatherLink_script,2013-05-22 13:38:00,
2013-05-22 09:43:00,75.3,70.1,29.97,SW,226,0.9,3.0,84,0.00,NA,NA,0.00,WeatherLink_script,2013-05-22 13:43:00,
2013-05-22 09:48:00,75.9,70.3,29.96,SW,219,1.3,2.0,83,0.00,NA,NA,0.00,WeatherLink_script,2013-05-22 13:48:00,
2013-05-22 09:53:00,76.4,70.4,29.96,SW,219,0.4,1.0,82,0.00,NA,NA,0.00,WeatherLink_script,2013-05-22 13:53:00,
2013-05-22 09:58:00,76.7,70.4,29.96,SW,229,0.8,2.0,81,0.00,NA,NA,0.00,WeatherLink_script,2013-05-22 13:58:00,
2013-05-22 10:03:00,77.1,70.4,29.97,SW,230,0.6,1.0,80,0.00,NA,NA,0.00,WeatherLink_script,2013-05-22 14:03:00,
2013-05-22 10:08:00,77.6,71.0,29.97,SW,230,1.2,2.0,80,0.00,NA,NA,0.00,WeatherLink_script,2013-05-22 14:08:00,
2013-05-22 10:13:00,78.1,71.8,29.97,West,266,1.5,2.0,81,0.00,NA,NA,0.00,WeatherLink_script,2013-05-22 14:13:00,
2013-05-22 10:18:00,78.6,71.9,29.97,SSW,203,1.0,2.0,80,0.00,NA,NA,0.00,WeatherLink_script,2013-05-22 14:18:00,
2013-05-22 10:23:00,79.2,71.3,29.96,SSW,204,1.1,3.0,77,0.00,NA,NA,0.00,WeatherLink_script,2013-05-22 14:23:00,
2013-05-22 10:29:00,79.6,72.1,29.96,SSW,203,0.6,2.0,78,0.00,NA,NA,0.00,WeatherLink_script,2013-05-22 14:29:00,
2013-05-22 10:34:00,80.3,72.8,29.96,SSW,203,1.7,2.0,78,0.00,NA,NA,0.00,WeatherLink_script,2013-05-22 14:34:00,
2013-05-22 10:39:00,80.7,72.8,29.96,SSW,205,1.3,4.0,77,0.00,NA,NA,0.00,WeatherLink_script,2013-05-22 14:39:00,
2013-05-22 10:44:00,81.1,72.0,29.96,SSW,202,1.4,3.0,74,0.00,NA,NA,0.00,WeatherLink_script,2013-05-22 14:44:00,
2013-05-22 10:49:00,81.4,72.7,29.96,SSW,212,3.4,6.0,75,0.00,NA,NA,0.00,WeatherLink_script,2013-05-22 14:49:00,
2013-05-22 10:54:00,81.7,72.2,29.96,West,277,2.7,4.0,73,0.00,NA,NA,0.00,WeatherLink_script,2013-05-22 14:54:00,
2013-05-22 10:59:00,81.9,71.9,29.96,SW,228,3.5,6.0,72,0.00,NA,NA,0.00,WeatherLink_script,2013-05-22 14:59:00,
2013-05-22 11:04:00,81.9,72.3,29.96,WSW,256,1.8,3.0,73,0.00,NA,NA,0.00,WeatherLink_script,2013-05-22 15:04:00,
2013-05-22 11:09:00,82.1,72.1,29.96,WSW,241,1.7,3.0,72,0.00,NA,NA,0.00,WeatherLink_script,2013-05-22 15:09:00,
2013-05-22 11:14:00,82.1,71.7,29.96,SW,214,2.5,5.0,71,0.00,NA,NA,0.00,WeatherLink_script,2013-05-22 15:14:00,
2013-05-22 11:19:00,82.3,73.2,29.96,SW,222,1.7,5.0,74,0.00,NA,NA,0.00,WeatherLink_script,2013-05-22 15:19:00,
2013-05-22 11:24:00,82.6,71.8,29.96,SSW,192,3.0,5.0,70,0.00,NA,NA,0.00,WeatherLink_script,2013-05-22 15:24:00,
2013-05-22 11:29:00,83.0,72.2,29.96,SW,215,2.0,3.0,70,0.00,NA,NA,0.00,WeatherLink_script,2013-05-22 15:29:00,
2013-05-22 11:34:00,83.2,72.4,29.96,SW,216,0.5,2.0,70,0.00,NA,NA,0.00,WeatherLink_script,2013-05-22 15:34:00,
2013-05-22 11:39:00,83.4,73.8,29.96,West,259,1.5,3.0,73,0.00,NA,NA,0.00,WeatherLink_script,2013-05-22 15:39:00,
2013-05-22 11:44:00,83.6,72.7,29.96,NW,314,1.8,4.0,70,0.00,NA,NA,0.00,WeatherLink_script,2013-05-22 15:44:00,
2013-05-22 11:49:00,83.8,71.6,29.96,SSW,197,1.5,4.0,67,0.00,NA,NA,0.00,WeatherLink_script,2013-05-22 15:49:00,
2013-05-22 11:54:00,84.1,73.2,29.96,SW,215,3.2,6.0,70,0.00,NA,NA,0.00,WeatherLink_script,2013-05-22 15:54:00,
2013-05-22 11:59:00,84.4,72.7,29.96,SW,217,2.5,4.0,68,0.00,NA,NA,0.00,WeatherLink_script,2013-05-22 15:59:00,
2013-05-22 12:04:00,84.6,72.8,29.95,SW,236,1.5,3.0,68,0.00,NA,NA,0.00,WeatherLink_script,2013-05-22 16:04:00,
2013-05-22 12:09:00,84.7,73.8,29.95,SW,217,1.1,2.0,70,0.00,NA,NA,0.00,WeatherLink_script,2013-05-22 16:09:00,
2013-05-22 12:14:00,84.8,72.6,29.95,SSW,201,3.3,5.0,67,0.00,NA,NA,0.00,WeatherLink_script,2013-05-22 16:14:00,
2013-05-22 12:19:00,84.9,73.1,29.95,SW,232,0.6,2.0,68,0.00,NA,NA,0.00,WeatherLink_script,2013-05-22 16:19:00,
2013-05-22 12:24:00,85.0,73.7,29.95,WSW,240,3.1,5.0,69,0.00,NA,NA,0.00,WeatherLink_script,2013-05-22 16:24:00,
2013-05-22 12:29:00,85.2,73.0,29.95,West,263,1.9,4.0,67,0.00,NA,NA,0.00,WeatherLink_script,2013-05-22 16:29:00,
2013-05-22 12:34:00,85.3,73.1,29.95,SSW,212,3.0,5.0,67,0.00,NA,NA,0.00,WeatherLink_script,2013-05-22 16:34:00,
2013-05-22 12:39:00,85.4,73.1,29.95,SW,224,2.4,7.0,67,0.00,NA,NA,0.00,WeatherLink_script,2013-05-22 16:39:00,
2013-05-22 12:45:00,85.4,72.7,29.95,SW,221,1.7,3.0,66,0.00,NA,NA,0.00,WeatherLink_script,2013-05-22 16:45:00,
2013-05-22 12:50:00,85.4,72.7,29.95,WSW,247,2.0,3.0,66,0.00,NA,NA,0.00,WeatherLink_script,2013-05-22 16:50:00,
2013-05-22 12:55:00,85.3,72.2,29.95,SW,217,2.6,4.0,65,0.00,NA,NA,0.00,WeatherLink_script,2013-05-22 16:55:00,
2013-05-22 13:00:00,85.6,72.4,29.94,SSW,196,1.6,3.0,65,0.00,NA,NA,0.00,WeatherLink_script,2013-05-22 17:00:00,
2013-05-22 13:05:00,85.5,72.4,29.94,SW,228,2.3,3.0,65,0.00,NA,NA,0.00,WeatherLink_script,2013-05-22 17:05:00,
2013-05-22 13:10:00,85.6,71.9,29.94,SSW,208,1.0,3.0,64,0.00,NA,NA,0.00,WeatherLink_script,2013-05-22 17:10:00,
2013-05-22 13:15:00,85.7,71.6,29.94,West,280,2.1,4.0,63,0.00,NA,NA,0.00,WeatherLink_script,2013-05-22 17:15:00,
2013-05-22 13:20:00,85.6,72.4,29.94,SSW,210,3.0,4.0,65,0.00,NA,NA,0.00,WeatherLink_script,2013-05-22 17:20:00,
2013-05-22 13:25:00,85.6,71.5,29.94,SSW,211,2.9,5.0,63,0.00,NA,NA,0.00,WeatherLink_script,2013-05-22 17:25:00,
2013-05-22 13:30:00,85.2,71.1,29.93,SSW,203,2.3,4.0,63,0.00,NA,NA,0.00,WeatherLink_script,2013-05-22 17:30:00,
2013-05-22 13:35:00,85.2,71.1,29.93,WSW,238,3.3,5.0,63,0.00,NA,NA,0.00,WeatherLink_script,2013-05-22 17:35:00,
2013-05-22 13:40:00,85.4,72.7,29.93,WSW,239,2.5,4.0,66,0.00,NA,NA,0.00,WeatherLink_script,2013-05-22 17:40:00,
2013-05-22 13:45:00,85.6,69.6,29.93,SW,228,1.1,2.0,59,0.00,NA,NA,0.00,WeatherLink_script,2013-05-22 17:45:00,
2013-05-22 13:50:00,85.7,71.6,29.92,SW,225,1.6,3.0,63,0.00,NA,NA,0.00,WeatherLink_script,2013-05-22 17:50:00,
2013-05-22 13:55:00,86.0,72.3,29.92,SW,217,1.5,3.0,64,0.00,NA,NA,0.00,WeatherLink_script,2013-05-22 17:55:00,
2013-05-22 14:00:00,86.2,71.6,29.92,SW,215,2.6,5.0,62,0.00,NA,NA,0.00,WeatherLink_script,2013-05-22 18:00:00,
2013-05-22 14:05:00,86.2,70.6,29.92,SSW,207,2.8,5.0,60,0.00,NA,NA,0.00,WeatherLink_script,2013-05-22 18:05:00,
2013-05-22 14:10:00,86.0,70.5,29.92,SSE,163,3.0,5.0,60,0.00,NA,NA,0.00,WeatherLink_script,2013-05-22 18:10:00,
2013-05-22 14:15:00,86.0,71.4,29.91,WSW,238,2.5,4.0,62,0.00,NA,NA,0.00,WeatherLink_script,2013-05-22 18:15:00,
2013-05-22 14:21:00,86.0,70.9,29.91,SW,231,0.7,2.0,61,0.00,NA,NA,0.00,WeatherLink_script,2013-05-22 18:21:00,
2013-05-22 14:26:00,86.0,71.0,29.92,WSW,255,3.3,8.0,61,0.00,NA,NA,0.00,WeatherLink_script,2013-05-22 18:26:00,
2013-05-22 14:31:00,86.0,71.0,29.92,SW,234,3.4,6.0,61,0.00,NA,NA,0.00,WeatherLink_script,2013-05-22 18:31:00,
2013-05-22 14:36:00,85.7,70.7,29.92,SSW,194,2.8,5.0,61,0.00,NA,NA,0.00,WeatherLink_script,2013-05-22 18:36:00,
2013-05-22 14:41:00,85.7,70.7,29.92,SSW,205,3.2,5.0,61,0.00,NA,NA,0.00,WeatherLink_script,2013-05-22 18:41:00,
2013-05-22 14:46:00,85.6,70.1,29.92,SSW,202,3.0,6.0,60,0.00,NA,NA,0.00,WeatherLink_script,2013-05-22 18:46:00,
2013-05-22 14:51:00,85.6,71.5,29.92,SSW,196,2.3,4.0,63,0.00,NA,NA,0.00,WeatherLink_script,2013-05-22 18:51:00,
2013-05-22 14:56:00,85.6,70.5,29.92,WSW,249,2.0,3.0,61,0.00,NA,NA,0.00,WeatherLink_script,2013-05-22 18:56:00,
2013-05-22 15:01:00,85.7,70.7,29.92,SSW,210,3.0,5.0,61,0.00,NA,NA,0.00,WeatherLink_script,2013-05-22 19:01:00,
2013-05-22 15:06:00,85.8,71.2,29.92,SW,217,3.4,5.0,62,0.00,NA,NA,0.00,WeatherLink_script,2013-05-22 19:06:00,
2013-05-22 15:12:00,85.6,70.5,29.91,South,187,2.1,5.0,61,0.00,NA,NA,0.00,WeatherLink_script,2013-05-22 19:12:00,
2013-05-22 15:17:00,85.5,70.5,29.91,SW,235,3.6,6.0,61,0.00,NA,NA,0.00,WeatherLink_script,2013-05-22 19:17:00,
2013-05-22 15:22:00,85.6,70.5,29.91,South,183,2.2,4.0,61,0.00,NA,NA,0.00,WeatherLink_script,2013-05-22 19:22:00,
2013-05-22 15:27:00,85.4,70.3,29.90,SW,230,2.3,3.0,61,0.00,NA,NA,0.00,WeatherLink_script,2013-05-22 19:27:00,
2013-05-22 15:32:00,85.4,69.9,29.90,WSW,254,2.6,4.0,60,0.00,NA,NA,0.00,WeatherLink_script,2013-05-22 19:32:00,
2013-05-22 15:37:00,85.2,70.2,29.90,South,185,2.1,3.0,61,0.00,NA,NA,0.00,WeatherLink_script,2013-05-22 19:37:00,
2013-05-22 15:42:00,85.3,71.3,29.90,SW,219,3.1,5.0,63,0.00,NA,NA,0.00,WeatherLink_script,2013-05-22 19:42:00,
2013-05-22 15:47:00,85.4,71.3,29.89,SW,220,2.5,5.0,63,0.00,NA,NA,0.00,WeatherLink_script,2013-05-22 19:47:00,
2013-05-22 15:52:00,85.0,70.0,29.89,SW,230,3.2,6.0,61,0.00,NA,NA,0.00,WeatherLink_script,2013-05-22 19:52:00,
2013-05-22 15:57:00,84.9,70.9,29.89,South,169,2.2,4.0,63,0.00,NA,NA,0.00,WeatherLink_script,2013-05-22 19:57:00,
2013-05-22 16:02:00,85.0,71.4,29.89,WSW,251,1.9,4.0,64,0.00,NA,NA,0.00,WeatherLink_script,2013-05-22 20:02:00,
2013-05-22 16:07:00,85.0,70.5,29.89,SSW,208,3.9,7.0,62,0.00,NA,NA,0.00,WeatherLink_script,2013-05-22 20:07:00,
2013-05-22 16:12:00,85.0,71.4,29.88,SW,214,2.3,3.0,64,0.00,NA,NA,0.00,WeatherLink_script,2013-05-22 20:12:00,
2013-05-22 16:17:00,84.8,70.8,29.88,SSW,198,2.6,3.0,63,0.00,NA,NA,0.00,WeatherLink_script,2013-05-22 20:17:00,
2013-05-22 16:22:00,84.8,71.2,29.88,SSW,202,3.4,5.0,64,0.00,NA,NA,0.00,WeatherLink_script,2013-05-22 20:22:00,
2013-05-22 16:27:00,84.8,72.1,29.88,WSW,244,2.8,4.0,66,0.00,NA,NA,0.00,WeatherLink_script,2013-05-22 20:27:00,
2013-05-22 16:32:00,84.8,70.8,29.88,WSW,248,1.8,3.0,63,0.00,NA,NA,0.00,WeatherLink_script,2013-05-22 20:32:00,
2013-05-22 16:37:00,84.9,71.4,29.88,SW,227,3.5,7.0,64,0.00,NA,NA,0.00,WeatherLink_script,2013-05-22 20:37:00,
2013-05-22 16:42:00,85.0,71.4,29.88,SW,229,3.5,6.0,64,0.00,NA,NA,0.00,WeatherLink_script,2013-05-22 20:42:00,
2013-05-22 16:47:00,84.8,71.2,29.88,SW,228,3.1,5.0,64,0.00,NA,NA,0.00,WeatherLink_script,2013-05-22 20:47:00,
2013-05-22 16:52:00,84.6,71.0,29.88,SSW,195,2.8,3.0,64,0.00,NA,NA,0.00,WeatherLink_script,2013-05-22 20:52:00,
2013-05-22 16:57:00,84.0,71.0,29.87,West,263,2.7,7.0,65,0.00,NA,NA,0.00,WeatherLink_script,2013-05-22 20:57:00,
2013-05-22 17:02:00,83.6,70.6,29.88,SW,227,2.1,3.0,65,0.00,NA,NA,0.00,WeatherLink_script,2013-05-22 21:02:00,
2013-05-22 17:07:00,83.4,70.8,29.88,NNW,330,2.0,4.0,66,0.00,NA,NA,0.00,WeatherLink_script,2013-05-22 21:07:00,
2013-05-22 17:12:00,82.9,70.3,29.88,SW,224,2.5,5.0,66,0.00,NA,NA,0.00,WeatherLink_script,2013-05-22 21:12:00,
2013-05-22 17:17:00,82.4,70.3,29.87,SW,224,2.2,3.0,67,0.00,NA,NA,0.00,WeatherLink_script,2013-05-22 21:17:00,
2013-05-22 17:22:00,82.0,70.4,29.87,WSW,240,2.5,4.0,68,0.00,NA,NA,0.00,WeatherLink_script,2013-05-22 21:22:00,
2013-05-22 17:27:00,82.0,70.0,29.87,SSW,212,5.0,9.0,67,0.00,NA,NA,0.00,WeatherLink_script,2013-05-22 21:27:00,
2013-05-22 17:32:00,82.1,70.5,29.87,SW,225,2.0,3.0,68,0.00,NA,NA,0.00,WeatherLink_script,2013-05-22 21:32:00,
2013-05-22 17:37:00,82.3,71.0,29.87,WNW,289,2.4,5.0,69,0.00,NA,NA,0.00,WeatherLink_script,2013-05-22 21:37:00,
2013-05-22 17:42:00,82.4,71.2,29.87,SSW,207,2.1,3.0,69,0.00,NA,NA,0.00,WeatherLink_script,2013-05-22 21:42:00,
2013-05-22 17:47:00,82.5,70.9,29.87,West,262,2.5,4.0,68,0.00,NA,NA,0.00,WeatherLink_script,2013-05-22 21:47:00,
2013-05-22 17:52:00,82.4,70.3,29.87,SW,220,2.6,4.0,67,0.00,NA,NA,0.00,WeatherLink_script,2013-05-22 21:52:00,
2013-05-22 17:57:00,82.0,70.4,29.88,SW,217,1.9,5.0,68,0.00,NA,NA,0.00,WeatherLink_script,2013-05-22 21:57:00,
2013-05-22 18:02:00,81.9,70.3,29.88,NNW,338,3.0,7.0,68,0.00,NA,NA,0.00,WeatherLink_script,2013-05-22 22:02:00,
2013-05-22 18:07:00,81.7,70.9,29.88,WSW,241,2.0,4.0,70,0.00,NA,NA,0.00,WeatherLink_script,2013-05-22 22:07:00,
2013-05-22 18:12:00,81.5,70.7,29.88,WSW,240,2.0,4.0,70,0.00,NA,NA,0.00,WeatherLink_script,2013-05-22 22:12:00,
2013-05-22 18:17:00,81.1,70.8,29.88,SW,218,2.3,4.0,71,0.00,NA,NA,0.00,WeatherLink_script,2013-05-22 22:17:00,
2013-05-22 18:22:00,80.9,70.6,29.88,South,191,2.1,3.0,71,0.00,NA,NA,0.00,WeatherLink_script,2013-05-22 22:22:00,
2013-05-22 18:27:00,80.9,70.6,29.88,South,191,2.1,3.0,71,0.00,NA,NA,0.00,WeatherLink_script,2013-05-22 22:27:00,
2013-05-22 18:32:00,80.9,71.0,29.88,South,191,2.2,4.0,72,0.00,NA,NA,0.00,WeatherLink_script,2013-05-22 22:32:00,
2013-05-22 18:37:00,80.9,71.0,29.88,South,178,2.0,3.0,72,0.00,NA,NA,0.00,WeatherLink_script,2013-05-22 22:37:00,
2013-05-22 18:42:00,80.7,71.2,29.88,East,100,1.8,3.0,73,0.00,NA,NA,0.00,WeatherLink_script,2013-05-22 22:42:00,
2013-05-22 18:47:00,80.3,70.9,29.88,South,172,1.8,4.0,73,0.00,NA,NA,0.00,WeatherLink_script,2013-05-22 22:47:00,
2013-05-22 18:52:00,80.2,70.7,29.88,South,186,2.7,4.0,73,0.00,NA,NA,0.00,WeatherLink_script,2013-05-22 22:52:00,
2013-05-22 18:57:00,79.9,70.4,29.88,SSW,195,1.9,3.0,73,0.00,NA,NA,0.00,WeatherLink_script,2013-05-22 22:57:00,
2013-05-22 19:02:00,79.5,70.1,29.88,SSW,194,1.7,3.0,73,0.00,NA,NA,0.00,WeatherLink_script,2013-05-22 23:02:00,
2013-05-22 19:07:00,79.1,70.0,29.88,WSW,239,1.4,3.0,74,0.00,NA,NA,0.00,WeatherLink_script,2013-05-22 23:07:00,
2013-05-22 19:12:00,78.7,70.1,29.88,SSW,196,2.4,4.0,75,0.00,NA,NA,0.00,WeatherLink_script,2013-05-22 23:12:00,
2013-05-22 19:17:00,78.3,69.7,29.89,SSW,211,2.1,4.0,75,0.00,NA,NA,0.00,WeatherLink_script,2013-05-22 23:17:00,
2013-05-22 19:22:00,78.1,69.9,29.89,SSW,211,1.5,2.0,76,0.00,NA,NA,0.00,WeatherLink_script,2013-05-22 23:22:00,
2013-05-22 19:27:00,77.8,69.6,29.89,SSW,211,2.4,4.0,76,0.00,NA,NA,0.00,WeatherLink_script,2013-05-22 23:27:00,
2013-05-22 19:32:00,77.6,69.4,29.89,SSW,211,1.8,3.0,76,0.00,NA,NA,0.00,WeatherLink_script,2013-05-22 23:32:00,
2013-05-22 19:37:00,77.4,69.6,29.89,SSW,211,1.5,3.0,77,0.00,NA,NA,0.00,WeatherLink_script,2013-05-22 23:37:00,
2013-05-22 19:42:00,77.3,69.5,29.89,SSW,211,1.4,3.0,77,0.00,NA,NA,0.00,WeatherLink_script,2013-05-22 23:42:00,
2013-05-22 19:47:00,77.1,69.7,29.89,SSW,211,2.0,4.0,78,0.00,NA,NA,0.00,WeatherLink_script,2013-05-22 23:47:00,
2013-05-22 19:52:00,76.8,69.4,29.90,SSW,211,2.2,3.0,78,0.00,NA,NA,0.00,WeatherLink_script,2013-05-22 23:52:00,
2013-05-22 19:57:00,76.6,69.3,29.90,SSW,211,2.9,4.0,78,0.00,NA,NA,0.00,WeatherLink_script,2013-05-22 23:57:00,
2013-05-22 20:02:00,76.6,69.2,29.91,SW,217,3.2,5.0,78,0.00,NA,NA,0.00,WeatherLink_script,2013-05-23 00:02:00,
2013-05-22 20:07:00,76.4,69.4,29.91,WSW,238,1.6,2.0,79,0.00,NA,NA,0.00,WeatherLink_script,2013-05-23 00:07:00,
2013-05-22 20:12:00,76.2,66.9,29.92,West,275,4.2,7.0,73,0.00,NA,NA,0.00,WeatherLink_script,2013-05-23 00:12:00,
2013-05-22 20:17:00,75.5,65.0,29.92,WSW,238,2.0,3.0,70,0.00,NA,NA,0.00,WeatherLink_script,2013-05-23 00:17:00,
2013-05-22 20:22:00,75.1,64.6,29.92,WNW,292,4.1,6.0,70,0.00,NA,NA,0.00,WeatherLink_script,2013-05-23 00:22:00,
2013-05-22 20:27:00,74.3,64.3,29.93,WNW,287,3.4,6.0,71,0.00,NA,NA,0.00,WeatherLink_script,2013-05-23 00:27:00,
2013-05-22 20:32:00,73.8,63.8,29.93,WSW,258,4.8,9.0,71,0.00,NA,NA,0.00,WeatherLink_script,2013-05-23 00:32:00,
2013-05-22 20:37:00,73.1,63.9,29.93,WNW,285,1.5,3.0,73,0.00,NA,NA,0.00,WeatherLink_script,2013-05-23 00:37:00,
2013-05-22 20:42:00,72.8,63.6,29.93,WNW,295,3.0,5.0,73,0.00,NA,NA,0.00,WeatherLink_script,2013-05-23 00:42:00,
2013-05-22 20:47:00,72.4,63.2,29.93,North,355,1.1,2.0,73,0.00,NA,NA,0.00,WeatherLink_script,2013-05-23 00:47:00,
2013-05-22 20:52:00,71.9,62.8,29.92,NNW,333,1.9,4.0,73,0.00,NA,NA,0.00,WeatherLink_script,2013-05-23 00:52:00,
2013-05-22 20:57:00,71.5,63.1,29.92,North,354,1.1,3.0,75,0.00,NA,NA,0.00,WeatherLink_script,2013-05-23 00:57:00,
2013-05-22 21:02:00,71.1,63.2,29.92,North,353,0.8,2.0,76,0.00,NA,NA,0.00,WeatherLink_script,2013-05-23 01:02:00,
2013-05-22 21:07:00,70.8,62.9,29.92,North,354,0.1,1.0,76,0.00,NA,NA,0.00,WeatherLink_script,2013-05-23 01:07:00,
2013-05-22 21:12:00,70.5,62.9,29.93,North,353,0.9,2.0,77,0.00,NA,NA,0.00,WeatherLink_script,2013-05-23 01:12:00,
2013-05-22 21:17:00,70.3,62.7,29.93,North,353,0.3,1.0,77,0.00,NA,NA,0.00,WeatherLink_script,2013-05-23 01:17:00,
2013-05-22 21:22:00,70.2,63.0,29.93,North,353,0.0,0.0,78,0.00,NA,NA,0.00,WeatherLink_script,2013-05-23 01:22:00,
2013-05-22 21:27:00,70.0,62.8,29.93,North,353,0.7,2.0,78,0.00,NA,NA,0.00,WeatherLink_script,2013-05-23 01:27:00,
2013-05-22 21:32:00,69.9,62.7,29.93,North,353,0.6,2.0,78,0.00,NA,NA,0.00,WeatherLink_script,2013-05-23 01:32:00,
2013-05-22 21:37:00,69.8,62.3,29.93,North,353,0.0,0.0,77,0.00,NA,NA,0.00,WeatherLink_script,2013-05-23 01:37:00,
2013-05-22 21:42:00,69.8,62.3,29.93,North,353,0.0,0.0,77,0.00,NA,NA,0.00,WeatherLink_script,2013-05-23 01:42:00,
2013-05-22 21:47:00,69.8,62.3,29.93,North,353,0.6,1.0,77,0.00,NA,NA,0.00,WeatherLink_script,2013-05-23 01:47:00,
2013-05-22 21:52:00,69.8,62.6,29.93,North,353,0.0,0.0,78,0.00,NA,NA,0.00,WeatherLink_script,2013-05-23 01:52:00,
2013-05-22 21:57:00,69.8,62.6,29.93,North,353,0.0,0.0,78,0.00,NA,NA,0.00,WeatherLink_script,2013-05-23 01:57:00,
2013-05-22 22:02:00,69.8,62.6,29.94,North,353,0.7,2.0,78,0.00,NA,NA,0.00,WeatherLink_script,2013-05-23 02:02:00,
2013-05-22 22:07:00,69.8,62.6,29.94,North,353,0.9,2.0,78,0.00,NA,NA,0.00,WeatherLink_script,2013-05-23 02:07:00,
2013-05-22 22:12:00,69.8,62.6,29.93,North,353,0.0,0.0,78,0.00,NA,NA,0.00,WeatherLink_script,2013-05-23 02:12:00,
2013-05-22 22:17:00,69.8,62.6,29.94,North,353,0.7,1.0,78,0.00,NA,NA,0.00,WeatherLink_script,2013-05-23 02:17:00,
2013-05-22 22:22:00,69.7,62.2,29.94,North,353,1.1,3.0,77,0.00,NA,NA,0.00,WeatherLink_script,2013-05-23 02:22:00,
2013-05-22 22:27:00,69.7,62.5,29.94,North,353,0.9,2.0,78,0.00,NA,NA,0.00,WeatherLink_script,2013-05-23 02:27:00,
2013-05-22 22:32:00,69.7,62.5,29.94,North,353,0.0,0.0,78,0.00,NA,NA,0.00,WeatherLink_script,2013-05-23 02:32:00,
2013-05-22 22:37:00,69.6,62.5,29.93,North,353,0.0,0.0,78,0.00,NA,NA,0.00,WeatherLink_script,2013-05-23 02:37:00,
2013-05-22 22:42:00,69.5,62.3,29.93,North,353,0.0,0.0,78,0.00,NA,NA,0.00,WeatherLink_script,2013-05-23 02:42:00,
2013-05-22 22:47:00,69.5,62.3,29.93,North,353,0.2,1.0,78,0.00,NA,NA,0.00,WeatherLink_script,2013-05-23 02:47:00,
2013-05-22 22:52:00,69.3,62.5,29.94,North,353,0.0,0.0,79,0.00,NA,NA,0.00,WeatherLink_script,2013-05-23 02:52:00,
2013-05-22 22:57:00,69.3,63.6,29.93,North,353,0.0,0.0,82,0.00,NA,NA,0.00,WeatherLink_script,2013-05-23 02:57:00,
2013-05-22 23:02:00,69.2,64.1,29.93,North,354,0.0,0.0,84,0.00,NA,NA,0.00,WeatherLink_script,2013-05-23 03:02:00,
2013-05-22 23:07:00,69.1,64.1,29.94,North,353,0.5,1.0,84,0.00,NA,NA,0.00,WeatherLink_script,2013-05-23 03:07:00,
2013-05-22 23:12:00,69.0,63.9,29.93,North,353,0.4,1.0,84,0.00,NA,NA,0.00,WeatherLink_script,2013-05-23 03:12:00,
2013-05-22 23:17:00,68.8,64.1,29.94,North,353,1.7,3.0,85,0.00,NA,NA,0.00,WeatherLink_script,2013-05-23 03:17:00,
2013-05-22 23:22:00,68.7,64.0,29.93,North,353,1.0,3.0,85,0.00,NA,NA,0.00,WeatherLink_script,2013-05-23 03:22:00,
2013-05-22 23:27:00,68.7,63.3,29.94,NNW,336,1.5,3.0,83,0.00,NA,NA,0.00,WeatherLink_script,2013-05-23 03:27:00,
2013-05-22 23:32:00,68.7,63.3,29.94,SW,230,2.2,4.0,83,0.00,NA,NA,0.00,WeatherLink_script,2013-05-23 03:32:00,
2013-05-22 23:37:00,68.7,63.7,29.94,SW,230,1.7,3.0,84,0.00,NA,NA,0.00,WeatherLink_script,2013-05-23 03:37:00,
2013-05-22 23:42:00,68.7,64.0,29.94,SSE,157,1.1,2.0,85,0.00,NA,NA,0.00,WeatherLink_script,2013-05-23 03:42:00,
2013-05-22 23:47:00,68.4,64.1,29.94,SSE,159,1.6,3.0,86,0.00,NA,NA,0.00,WeatherLink_script,2013-05-23 03:47:00,
2013-05-22 23:52:00,68.1,64.1,29.94,SSE,159,2.0,4.0,87,0.00,NA,NA,0.00,WeatherLink_script,2013-05-23 03:52:00,
2013-05-22 23:57:00,67.9,63.9,29.93,SSE,159,1.2,3.0,87,0.00,NA,NA,0.00,WeatherLink_script,2013-05-23 03:57:00,